Broomfield, CO

5:16 PM MST on February 06, 2016 (GMT -0700)
Jeffco

Weather History for KBJC - August, 2013

Change the Weather History Date:

Tuesday, August 27, 2013

  Actual Average Record
Temperature  
Mean Temperature 76 °F -  
Max Temperature 89 °F 82 °F 95 °F (2001)
Min Temperature 64 °F 58 °F 46 °F (1987)
Cooling Degree Days 12    
Growing Degree Days 26 (Base 50)    
Moisture  
Dew Point 50 °F    
Average Humidity 48    
Maximum Humidity 73    
Minimum Humidity 21    
Precipitation  
Precipitation 0.00 in - - ()
Sea Level Pressure  
Sea Level Pressure 30.19 in    
Wind  
Wind Speed 5 mph (WSW)    
Max Wind Speed 9 mph    
Max Gust Speed -    
Visibility 10 miles    
Events Rain    
Averages and records for this station are not official NWS values.
T = Trace of Precipitation, MM = Missing Value Source: NWS Daily Summary

Daily Weather History Graph

Daily Weather History Graph

Search for Another Location

Airport or City:

Trip Planner

Search our weather history database for the weather conditions in past years. The results will help you decide how hot, cold, wet, or windy it might be!

Date:

Astronomy

Aug. 27, 2013 Rise Set
Actual Time 6:23 AM MDT 7:39 PM MDT
Civil Twilight 5:55 AM MDT 8:07 PM MDT
Nautical Twilight 5:22 AM MDT 8:40 PM MDT
Astronomical Twilight 4:47 AM MDT 9:15 PM MDT
Moon 11:34 PM MDT (8/27) 1:23 PM MDT (8/27)
Length of Visible Light 14h 11m
Length of Day
13h 15m
Waning Gibbous, 56% of the Moon is Illuminated
Aug 27
Waning Gibbous
Aug 28
Last Quarter
Sep 5
New
Sep 12
First Quarter
Sep 19
Full

Hourly Weather History & Observations

Time (MDT) Temp. Dew Point Humidity Pressure Visibility Wind Dir Wind Speed Gust Speed Precip Events Conditions
12:15 AM 68.0 °F 53.6 °F 60% 30.22 in 10.0 mi West 4.6 mph - N/A   Mostly Cloudy
12:35 AM 68.0 °F 53.6 °F 60% 30.22 in 10.0 mi West 8.1 mph - N/A   Mostly Cloudy
12:55 AM 68.0 °F 53.6 °F 60% 30.22 in 10.0 mi SW 8.1 mph - N/A   Scattered Clouds
1:14 AM 68.0 °F 55.4 °F 64% 30.22 in 10.0 mi WSW 4.6 mph - N/A   Mostly Cloudy
1:34 AM 68.0 °F 53.6 °F 60% 30.20 in 10.0 mi WNW 9.2 mph - N/A Rain Light Rain
1:55 AM 69.8 °F 53.6 °F 56% 30.21 in 10.0 mi West 4.6 mph - N/A   Scattered Clouds
2:15 AM 68.0 °F 55.4 °F 64% 30.21 in 10.0 mi SSW 3.5 mph - N/A   Scattered Clouds
2:35 AM 68.0 °F 55.4 °F 64% 30.21 in 10.0 mi Calm Calm - N/A   Clear
2:54 AM 66.2 °F 55.4 °F 68% 30.21 in 10.0 mi SSW 3.5 mph - N/A   Clear
3:15 AM 64.4 °F 55.4 °F 73% 30.21 in 10.0 mi WSW 4.6 mph - N/A   Clear
3:35 AM 64.4 °F 53.6 °F 68% 30.20 in 10.0 mi West 4.6 mph - N/A   Clear
3:55 AM 68.0 °F 51.8 °F 56% 30.20 in 10.0 mi West 3.5 mph - N/A   Clear
4:15 AM 64.4 °F 51.8 °F 64% 30.20 in 10.0 mi West 6.9 mph - N/A   Clear
4:35 AM 68.0 °F 50.0 °F 52% 30.20 in 10.0 mi Calm Calm - N/A   Clear
4:54 AM 64.4 °F 51.8 °F 64% 30.20 in 10.0 mi Calm Calm - N/A   Clear
5:15 AM 64.4 °F 51.8 °F 64% 30.21 in 10.0 mi West 4.6 mph - N/A   Clear
5:35 AM 68.0 °F 50.0 °F 52% 30.21 in 10.0 mi Calm Calm - N/A   Clear
5:52 AM 64.4 °F 51.8 °F 64% 30.21 in 30.0 mi Calm Calm - N/A   Partly Cloudy
5:55 AM 64.4 °F 51.8 °F 64% 30.21 in 10.0 mi Calm Calm - N/A   Clear
6:47 AM 64.4 °F 50.0 °F 59% 30.22 in 30.0 mi Calm Calm - N/A   Partly Cloudy
7:50 AM 69.8 °F 51.8 °F 53% 30.23 in 50.0 mi WSW 4.6 mph - N/A   Partly Cloudy
8:48 AM 75.2 °F 51.8 °F 44% 30.23 in 50.0 mi Calm Calm - N/A   Scattered Clouds
9:48 AM 80.6 °F 48.2 °F 32% 30.24 in 40.0 mi SE 4.6 mph - N/A   Partly Cloudy
10:47 AM 84.2 °F 46.4 °F 27% 30.23 in 40.0 mi SE 8.1 mph - N/A   Partly Cloudy
11:47 AM 86.0 °F 46.4 °F 25% 30.22 in 40.0 mi SE 6.9 mph - N/A   Scattered Clouds
12:50 PM 87.8 °F 46.4 °F 24% 30.20 in 40.0 mi East 4.6 mph - N/A   Mostly Cloudy
1:52 PM 87.8 °F 46.4 °F 24% 30.17 in 40.0 mi ENE 6.9 mph - N/A   Scattered Clouds
2:53 PM 87.8 °F 46.4 °F 24% 30.16 in 40.0 mi East 8.1 mph - N/A   Mostly Cloudy
3:45 PM 89.6 °F 44.6 °F 21% 30.15 in 40.0 mi ESE 9.2 mph - N/A   Mostly Cloudy
4:53 PM 86.0 °F 44.6 °F 23% 30.13 in 45.0 mi Calm Calm - N/A   Mostly Cloudy
5:53 PM 89.6 °F 44.6 °F 21% 30.13 in 30.0 mi Variable 4.6 mph - N/A   Mostly Cloudy
6:53 PM 84.2 °F 44.6 °F 25% 30.12 in 30.0 mi Variable 3.5 mph - N/A   Scattered Clouds
7:46 PM 82.4 °F 46.4 °F 28% 30.13 in 25.0 mi NW 5.8 mph - N/A   Overcast
9:46 PM 73.4 °F 51.8 °F 47% 30.15 in 20.0 mi SSW 3.5 mph - N/A   Scattered Clouds
11:15 PM 73.4 °F 48.2 °F 41% 30.15 in 10.0 mi West 3.5 mph - N/A   Clear
11:35 PM 71.6 °F 48.2 °F 43% 30.15 in 10.0 mi West 5.8 mph - N/A   Clear
11:55 PM 71.6 °F 48.2 °F 43% 30.15 in 10.0 mi NNW 6.9 mph - N/A   Clear